Terug naar catalogus

IRIDIUM 33 DEB

ActiefPO
NORAD 34696·DEBRIS·🇺🇸 United States

Gelanceerd Sep 14, 1997 vanaf Baikonur Cosmodrome

Loading…

Volgende Passages (komende 24 uur)

TLE

VersSource: Space-Track

Epoch: Sep 14, 2026, 11:46 UTC

1 34696U 97051KT  26257.49074866  .00018642  00000-0  23070-2 0  9991
2 34696  86.1769 257.1894 0045568 292.9708 222.3834 14.81905759907366

Volg IRIDIUM 33 DEB in realtime met AllMySat

Download on the App Store